CW0621 Weather Reports


Display with metric or nautical units.
time (UTC)temp
F
wind
direction
speed
MPH
gust
MPH
rain 1hr
in
rain 24hr
in
rain mn
in
humidity
%
barometer
mb
20260505151544 49 75 0.0 0.0 0.00 0.33 0.09 71 1007.8
20260505124507 53 233 0.0 0.0 0.00 0.33 0.09 75 1004.9
20260505123046 52 137 0.0 3.0 0.00 0.33 0.09 72 1004.8
20260505121559 51 224 0.0 2.0 0.00 0.33 0.09 82 1004.9
20260505120025 51 68 0.0 3.0 0.00 0.33 0.09 86 1004.3
20260505114555 52 53 0.0 0.0 0.00 0.33 0.09 92 1004.2
20260505113016 53 136 0.0 0.0 0.00 0.33 0.09 94 1004.4
20260505111544 53 56 0.0 0.0 0.00 0.33 0.09 94 1004.3
20260505101528 53 50 0.0 0.0 0.00 0.33 0.09 94 1002.7
20260505100101 53 106 0.0 0.0 0.00 0.33 0.09 93 1002.8
20260505094531 53 148 0.0 0.0 0.00 0.33 0.09 93 1002.5
20260505093058 53 250 0.0 0.0 0.00 0.33 0.09 93 1002.5
20260505091524 54 250 0.0 0.0 0.00 0.33 0.09 92 1002.3
20260505090058 54 255 0.0 0.0 0.00 0.33 0.09 91 1002.4
20260505084524 54 231 0.0 0.0 0.00 0.33 0.09 92 1002.5
20260505083105 54 117 0.0 0.0 0.00 0.33 0.09 92 1002.4
20260505081522 54 141 0.0 0.0 0.00 0.33 0.09 92 1002.5
20260505080049 54 187 0.0 0.0 0.00 0.33 0.09 92 1002.5
20260505074515 54 262 0.0 0.0 0.00 0.33 0.09 93 1002.0
20260505073050 54 257 0.0 0.0 0.00 0.33 0.09 93 1001.6
20260505071514 54 243 0.0 0.0 0.00 0.33 0.09 93 1001.4
20260505070043 55 129 0.0 0.0 0.00 0.33 0.09 93 1001.4
20260505064511 55 259 0.0 1.0 0.00 0.33 0.09 94 1001.3
20260505063039 54 239 0.0 0.0 0.00 0.33 0.09 94 1000.8
20260505061507 54 219 0.0 0.0 0.00 0.33 0.09 94 1000.6
20260505060033 54 172 0.0 0.0 0.00 0.33 0.09 94 1000.9
20260505054505 54 198 0.0 0.0 0.01 0.33 0.09 94 1001.2
20260505053027 54 265 0.0 0.0 0.03 0.33 0.09 94 1001.1
20260505051553 54 125 0.0 0.0 0.07 0.33 0.09 94 1000.7
20260505041536 55 221 0.0 0.0 0.14 0.25 0.01 93 1002.4
20260505040004 56 147 0.0 0.0 0.17 0.24 0.24 93 1002.4
20260505034541 56 84 0.0 0.0 0.23 0.23 0.23 92 1002.8
20260505033004 56 206 0.0 0.0 0.19 0.19 0.19 91 1002.9
20260505031531 57 108 0.0 0.0 0.11 0.11 0.11 88 1002.0
20260505030127 60 206 0.0 8.0 0.08 0.08 0.07 83 1001.9
20260505024528 63 328 0.0 0.0 0.00 0.00 0.00 81 1001.2
20260505023100 64 116 0.0 0.0 0.00 0.00 0.00 76 1000.6
20260505021531 65 114 0.0 0.0 0.00 0.00 0.00 71 1001.0
20260505020109 65 212 0.0 0.0 0.00 0.00 0.00 70 1001.0
20260505014536 65 161 0.0 0.0 0.00 0.00 0.00 68 1001.0
20260505013100 65 215 0.0 0.0 0.00 0.00 0.00 67 1000.7
20260505011531 66 262 0.0 0.0 0.00 0.00 0.00 65 1000.3
20260505010113 66 257 0.0 0.0 0.00 0.00 0.00 63 1000.2
20260505004554 67 147 0.0 0.0 0.00 0.00 0.00 61 1000.5
20260505003002 67 253 0.0 0.0 0.00 0.00 0.00 60 1000.5
20260505001533 68 275 0.0 0.0 0.00 0.00 0.00 58 1000.4
20260505000112 69 245 0.0 3.0 0.00 0.00 0.00 56 1000.5
20260504234529 69 272 0.0 7.0 0.00 0.00 0.00 54 1000.3
20260504233109 70 260 0.0 7.0 0.00 0.00 0.00 51 1000.3
20260504231525 71 155 0.0 6.0 0.00 0.00 0.00 47 1000.3
20260504230055 72 191 0.0 8.0 0.00 0.00 0.00 47 1000.2
20260504224532 73 273 0.0 9.0 0.00 0.00 0.00 46 1000.1
20260504223055 73 250 0.0 6.0 0.00 0.00 0.00 47 999.8
20260504221535 74 108 0.0 14.0 0.00 0.00 0.00 47 999.8
20260504220055 74 207 0.0 10.0 0.00 0.00 0.00 45 999.7
20260504214522 74 185 1.0 7.0 0.00 0.00 0.00 49 999.6
20260504213051 73 105 0.0 6.0 0.00 0.00 0.00 50 999.8
20260504211517 73 221 0.0 1.0 0.00 0.00 0.00 51 999.9
20260504210049 75 269 0.0 6.0 0.00 0.00 0.00 49 1000.3
20260504204513 76 159 0.0 5.0 0.00 0.00 0.00 47 1000.3
20260504203038 75 209 0.0 6.0 0.00 0.00 0.00 48 1000.8
20260504201504 74 113 0.0 6.0 0.00 0.00 0.00 49 1001.1
20260504200034 75 249 0.0 7.0 0.00 0.00 0.00 48 1001.2
20260504194604 75 49 0.0 8.0 0.00 0.00 0.00 49 1001.5
20260504193020 75 288 0.0 3.0 0.00 0.00 0.00 48 1001.8
20260504191610 75 217 0.0 6.0 0.00 0.00 0.00 49 1001.7
20260504190018 75 138 0.0 7.0 0.00 0.00 0.00 49 1001.9
20260504184553 75 265 0.0 4.0 0.00 0.00 0.00 47 1002.2
20260504183008 75 4 0.0 4.0 0.00 0.00 0.00 46 1002.3
20260504181536 74 53 0.0 5.0 0.00 0.00 0.00 44 1002.4
20260504180002 75 88 0.0 5.0 0.00 0.00 0.00 44 1002.5
20260504174528 75 167 0.0 2.0 0.00 0.00 0.00 39 1002.8
20260504173056 74 45 0.0 4.0 0.00 0.00 0.00 42 1003.1
20260504171522 74 259 0.0 5.0 0.00 0.00 0.00 36 1003.5